TimePST,TemperatureF,Dew PointF,Humidity,Sea Level PressureIn,VisibilityMPH,Wind Direction,Wind SpeedMPH,Gust SpeedMPH,PrecipitationIn,Events,Conditions,WindDirDegrees,DateUTC
12:41 AM,36.0,34.0,93,29.74,10.0,SSW,10.4,-,0.00,,Scattered Clouds,200,2012-12-16 08:41:00
12:54 AM,35.1,34.0,96,29.75,10.0,SSW,11.5,-,0.00,,Clear,200,2012-12-16 08:54:00
1:54 AM,35.1,34.0,96,29.76,10.0,South,8.1,-,0.01,,Mostly Cloudy,190,2012-12-16 09:54:00
2:04 AM,36.0,34.0,93,29.76,10.0,South,10.4,-,N/A,,Overcast,190,2012-12-16 10:04:00
2:13 AM,36.0,34.0,93,29.76,10.0,SSW,11.5,-,N/A,,Overcast,200,2012-12-16 10:13:00
2:28 AM,36.0,34.0,93,29.77,8.0,SSW,9.2,-,0.00,Rain,Light Rain,200,2012-12-16 10:28:00
2:54 AM,34.0,33.1,96,29.78,9.0,South,6.9,-,0.04,Rain,Light Rain,180,2012-12-16 10:54:00
3:19 AM,35.1,34.0,96,29.76,10.0,South,6.9,-,0.00,,Overcast,190,2012-12-16 11:19:00
3:44 AM,36.0,34.0,93,29.77,10.0,SSW,8.1,-,0.00,Rain,Light Rain,200,2012-12-16 11:44:00
3:54 AM,36.0,35.1,97,29.78,10.0,SSW,9.2,-,0.00,,Overcast,200,2012-12-16 11:54:00
4:16 AM,36.0,35.1,97,29.76,9.0,South,11.5,-,0.00,Rain,Light Rain,180,2012-12-16 12:16:00
4:54 AM,37.4,35.6,93,29.76,3.0,South,15.0,-,N/A,Rain,Light Rain,180,2012-12-16 12:54:00
5:19 AM,37.0,35.1,93,29.76,7.0,SSW,9.2,-,0.04,Rain,Light Rain,200,2012-12-16 13:19:00
5:40 AM,37.0,36.0,96,29.76,10.0,SW,5.8,-,0.04,,Overcast,220,2012-12-16 13:40:00
5:54 AM,37.0,35.1,93,29.78,10.0,SW,5.8,-,0.04,,Overcast,220,2012-12-16 13:54:00
6:49 AM,37.4,35.6,93,29.76,8.0,South,9.2,-,0.01,Rain,Light Rain,190,2012-12-16 14:49:00
6:54 AM,37.0,36.0,96,29.77,8.0,South,9.2,-,0.01,Rain,Light Rain,190,2012-12-16 14:54:00
7:54 AM,37.0,36.0,96,29.76,6.0,South,9.2,-,0.02,Rain,Light Rain,190,2012-12-16 15:54:00
8:54 AM,37.0,36.0,96,29.74,8.0,South,9.2,-,0.01,Rain,Light Rain,180,2012-12-16 16:54:00
9:54 AM,37.0,36.0,96,29.73,6.0,South,8.1,-,0.01,Rain,Light Rain,190,2012-12-16 17:54:00
10:54 AM,37.0,36.0,96,29.69,5.0,South,5.8,-,0.03,Rain,Light Rain,190,2012-12-16 18:54:00
11:54 AM,37.9,37.0,97,29.64,4.0,South,10.4,-,0.04,Rain,Light Rain,180,2012-12-16 19:54:00
12:54 PM,39.0,37.0,93,29.57,8.0,South,10.4,-,0.04,Rain,Light Rain,170,2012-12-16 20:54:00
1:54 PM,39.9,37.0,89,29.49,10.0,South,4.6,-,0.00,Rain,Light Rain,180,2012-12-16 21:54:00
2:54 PM,39.9,37.0,89,29.38,3.0,ESE,8.1,-,0.06,Rain,Rain,120,2012-12-16 22:54:00
3:54 PM,39.0,37.0,93,29.30,4.0,NNE,5.8,-,0.07,Rain,Light Rain,30,2012-12-16 23:54:00
4:18 PM,39.0,39.0,100,29.26,3.0,NW,3.5,-,0.03,Rain,Light Rain,320,2012-12-17 00:18:00
4:22 PM,39.0,37.9,96,29.25,3.0,NNW,3.5,-,0.04,Rain,Light Rain,330,2012-12-17 00:22:00
4:54 PM,39.0,37.9,96,29.20,3.0,NE,3.5,-,0.06,Rain,Light Rain,50,2012-12-17 00:54:00
5:01 PM,39.0,37.9,96,29.18,3.0,Calm,Calm,-,0.01,Rain,Light Rain,0,2012-12-17 01:01:00
5:54 PM,39.9,37.9,93,29.11,3.0,Variable,3.5,-,0.08,Rain,Light Rain,0,2012-12-17 01:54:00
6:54 PM,44.1,41.0,89,29.05,4.0,SSW,13.8,-,0.19,Rain,Rain,200,2012-12-17 02:54:00
7:54 PM,45.0,42.1,90,29.05,6.0,South,19.6,-,0.12,Rain,Light Rain,180,2012-12-17 03:54:00
8:33 PM,45.0,43.0,93,29.05,6.0,South,17.3,26.5,0.05,Rain,Light Rain,180,2012-12-17 04:33:00
8:52 PM,44.6,42.8,93,29.05,4.0,South,13.8,-,0.09,Rain,Rain,190,2012-12-17 04:52:00
8:54 PM,45.0,43.0,93,29.05,4.0,South,12.7,-,0.10,Rain,Rain,190,2012-12-17 04:54:00
9:54 PM,45.0,43.0,93,29.03,9.0,South,15.0,-,0.00,Rain,Light Rain,180,2012-12-17 05:54:00
10:21 PM,45.0,43.0,93,29.01,3.0,South,11.5,-,0.10,Rain,Rain,170,2012-12-17 06:21:00
10:32 PM,45.0,43.0,93,28.99,2.5,SSE,10.4,-,0.14,Rain,Rain,160,2012-12-17 06:32:00
10:39 PM,44.6,42.8,93,28.98,4.0,South,9.2,-,N/A,Rain,Light Rain,170,2012-12-17 06:39:00
10:54 PM,45.0,43.0,93,28.97,6.0,South,15.0,-,0.16,Rain,Rain,170,2012-12-17 06:54:00
11:31 PM,45.0,43.0,93,28.96,5.0,South,15.0,-,0.06,Rain,Rain,180,2012-12-17 07:31:00
11:42 PM,46.0,43.0,89,28.97,8.0,South,23.0,34.5,0.06,Rain,Light Rain,180,2012-12-17 07:42:00
11:54 PM,45.0,43.0,93,28.96,8.0,South,18.4,-,0.07,Rain,Light Rain,180,2012-12-17 07:54:00